Weather Service Report


851 
ASUS41 KGYX 190410
RWRGYX
WEATHER ROUNDUP FOR MAINE AND NEW HAMPSHIRE
NATIONAL WEATHER SERVICE GRAY ME
1100 PM EST WED JAN 18 2017

MEZ002-005-006-010-012-015-018-020-021-024-026-027-029-190500-
MAINE
  
CITY           SKY/WX    TMP DP  RH WIND       PRES   REMARKS
PORTLAND       CLOUDY    26  22  84 N8        30.05F FOG              
SANFORD        CLOUDY    26  24  92 N8        30.04F                  
BAR HARBOR     CLOUDY    26  20  77 N5        30.06F                  
WISCASSET      CLOUDY    28  22  78 CALM      30.06F                  
ROCKLAND       CLOUDY    30  24  78 NE7       30.04F                  
FRYEBURG       LGT SNOW  25  23  92 CALM      30.04F FOG              
LEWISTONAUBURN FLURRIES  23  21  92 N7        30.05F                  
AUGUSTA        CLOUDY    22  17  81 N6        30.05F                  
WATERVILLE     CLOUDY   N/A N/A N/A N6        30.03S                  
BANGOR         CLOUDY    25  19  78 N6        30.06F                  
GREENVILLE       N/A     18  17  96 VRB3      29.94F                  
MILLINOCKET    CLOUDY    21  14  74 CALM      30.06F                  
HOULTON        CLOUDY    19  12  74 CALM      30.04F                  
PRESQUE ISLE   CLOUDY    18  11  74 SE8       30.03F                  
FRENCHVILLE    CLOUDY    16   9  74 SE12      29.96F WCI   3          
CARIBOU        CLOUDY    18  10  71 SE6       30.01F                  
$$

NHZ002-005-008-009-011-012-014-190500-
NEW HAMPSHIRE
  
CITY           SKY/WX    TMP DP  RH WIND       PRES   REMARKS
PORTSMOUTH     LGT SNOW  28  25  90 N7        30.02F FOG              
ROCHESTER      CLOUDY    27  24  89 N7        30.02F                  
NASHUA         CLOUDY    31  30  96 CALM      30.03F                  
MANCHESTER     LGT SNOW  30  27  88 N5        30.01F FOG              
CONCORD        CLOUDY    29  26  89 CALM      30.02F FOG              
LACONIA        FLURRIES  27  25  92 E6        30.02F                  
PLYMOUTH       LGT SNOW  28  27  94 CALM      30.02F                  
BERLIN         CLOUDY    26  22  84 N3        29.96F                  
WHITEFIELD     CLOUDY    29  22  75 E3        29.95F                  
JAFFREY        CLOUDY    29  27  92 NE3       29.98F FOG              
KEENE          MIX PCPN  30  28  93 CALM      30.01F FOG              
LEBANON        CLOUDY    31  30  96 CALM      30.00F                  
MT WASHINGTON  DRFTSNOW  18  18 100 SW36        N/A  VSB 1/16WCI  -3  
$$

VTZ005-007-008-190500-
VERMONT
  
CITY           SKY/WX    TMP DP  RH WIND       PRES   REMARKS
ST JOHNSBURY     N/A     31  28  89 MISG      29.95F                  
MONTPELIER     CLOUDY    30  28  92 S5        29.97F                  
BURLINGTON     CLOUDY    36  33  89 S8        29.94S                  
$$

MAZ007-012-024-CTZ003-RIZ002-NYZ038-NYZ072-190500-
SOUTHERN NEW ENGLAND AND NY
  
CITY           SKY/WX    TMP DP  RH WIND       PRES   REMARKS
BOSTON         CLOUDY    33  32  96 NW13      30.03R                  
WORCESTER      FOG       30  29  96 N6        29.98R VSB 3/4          
NANTUCKET      CLOUDY    41  39  93 NE7       29.95F                  
PROVIDENCE     CLOUDY    35  33  92 N9        30.01R FOG              
HARTFORD       CLOUDY    34  33  96 N5        30.02S                  
ALBANY         DRIZZLE   36  34  92 S6        30.01F                  
NEW YORK CITY  CLOUDY    42  36  79 N7        30.02S                  
$$

ANZ081-ANZ082-ANZ150-NHZ014-MEZ023>029-190500-
COASTAL MARINE OBSERVATIONS
  
STATION/POSITION TIME  TEMP    WIND        PRES    WAVE
                       AIR SEA DIR/SP/G            HT/PER
                 (UTC) (F)     (DEG/KT/KT) (MB)    (FT/S)
MOUNT DESERT ROC 0400   35                 1016.9F
MATINICUS ROCK   0300   36      90/ 14/ 16 1016.9F
ISLE OF SHOALS   0300   31      10/ 16/ 18 1015.8F
CASHES LEDGE BUO 0250   38 46  100/ 14/ 16 1016.7    8/ 8
GEORGES BANK BUO 0250   44 43              1011.2   12/ 9
$$

.............KEY..............
   WCI - WIND CHILL
   TC  - TEMPERATURE IN CELSIUS
   VSB - VISIBILITY IN MILES
   HX  - HEAT INDEX
   FAIR- INDICATES FEW OR NO CLOUDS BELOW 12,000 FT, WITH NO 
         SIGNIFICANT WEATHER AND/OR OBSTRUCTIONS TO VISIBILITY.


  

Return to Home page


Western Regional Climate Center, wrcc@dri.edu